STARLINK-5630, 55406

Orbit data source: Space-Track

STARLINK-5630, 55406 is a payload satellite owned by SpaceX/Seattle (US) in LEO that was launched on Tue, 31 Jan 2023 UTC via an FALCON 9 launch vehicle from the Air Force Western Test Range (AFWTR). Payload-class satellites include a variety of spacecraft equipped with specific instruments for various scientific and technological missions. These include communications satellites like Starlink; space stations such as the ISS; scientific satellites like the Hubble; Earth observation satellites from companies like Planet Labs, Umbra, and HawkEye 360; GPS; miniature CubeSats for education and research; and military/defense satellites.

Loading next visibility...
Identifier
55406, 2023-014R
Orbit
LEO
Country
Flag of USUS
Related business
Manufacturer
SpaceX/Seattle
Mission
Operational Commercial Communications
Bus & Motor
STARLINK, Unknown motor
Mass
305 kg wet, ~290 kg dry
Launch date (UTC)
2023-01-31 (3 years ago)
Launch vehicle
FALCON 9
Launch site
Air Force Western Test Range (AFWTR)
Object type
Payload
Rocket body
Debris
Shape & HBR
Box + 1 Pan, 10.1 m
Radar Cross Section
13.562 m², Large (>1 m²)

Expand to show TLE details & history
Last TLE update: 2 days ago

TLE from 2 days ago
0 STARLINK-5630
1 55406U 23014R   26171.37771646  .00000418  00000-0  42875-4 0  9991
2 55406  69.9992 165.6811 0003558 266.1168  93.9584 14.98323294187431
Epoch: 2026-06-20T09:03Z
TLE epoch observation values (Epoch: 2026-06-20T09:03:54.702Z)
Latitude
-0.00003°
Longitude
121.10996°
Altitude
574.672 km
Speed
7.574 km/s
True Right ascension
11h 02m 43s
True Declination
0° 00' 00"
Sunlit
Object was in daylight at epoch
Visualization orbit readout
Latitude
Unknown
Longitude
Unknown
Altitude
Unknown
Speed
Unknown
Apparent Right ascension
Unknown
Apparent Declination
Unknown
Sunlit
N/A
Visualization observer readout
Local Sidereal Time
00:36:52
Azimuth
Unknown
Elevation
Unknown
Doppler factor
Unknown
Orbital elements
Apogee altitude
572.497 km
Perigee altitude
567.553 km
Semi-major axis
6,948.162 km
Eccentricity
0.00036
Inclination
69.9992°
RAAN
165.6811°
Arg. of periapsis
266.1168°
True anomaly
93.99907°
Mean anomaly
93.9584°
Eccentric anomaly
93.97874°
Mean motion
3.74747 °/min
Orbital period
96.06 mins
BSTAR
0.000042875
Loading maneuver chart data...
Computing Atmospheric mass density...

Documentation

Showing up to 5 results
|